EHI
0 0 0 0 0 0 0 0 0 0 0 0 0 0 0 0 0 0 0 0 0 0 0 0 0 0 0 0 0 0 0 0 0 0 0 0 0 0
0 0 0 0 0 0 0 0 0 0 0 0 0 0 0 0 0 0 0 0 0 0 0 0 0 0 0 0 0 0 0 0 0 0 0 0 0 0
0 0 0 0 0 0 0 0 0 0 0 0 0 0 0 0 0 0 0 0 0 0 0 0 0 0 0 0 0 0 0 0 0 0 0 0 0 0
0 0 0 0 0 0 0 0 0 0 0 0 0 0 0 0 0 0 0 0 0 0 0 0 0 0 0 0 0 0 0 0 0 0 0 0 0 0
0 0 0 0 0 0 0 0 0 0 0 0 0 0 0 0 0 0 0 0 0 0 0 0 0 0 0 0 0 0 0 0 0 0 0 0 0 0
0 0 0 0 0 0 0 0 0 0 0 0 0 0 0 0 0 0 0 0 0 0 0 0 0 0 0 0 0 0 0 0 0 0 0 0 0 0
0 0 0 0 0 0 0 0 0 0 0 0 0 0 0 0 0 0 0 0 0 0 0 0 0 0 0 0 0 0 0 0 0 0 0 0 0 0
0 0 0 0 0 0 0 0 0 0 0 0 0 0 0 0 0 0 0 0 0 0 0 0 0 0 0 0 0 0 0 0 0 0 0 0 0 0
0 0 0 0 0 0 0 0 0 0 0 0 0 0 0 0 0 0 0 0 0 0 0 0 0 0 0 0 0 0 0 0 0 0 0 0 0 0
0 0 0 0 0 0 0 0 0 0 0 0 0 0 0 0 0 0 0 0 0 0 0 0 0 0 0 0 0 0 0 0 0 0 0 0 0 0
0 0 0 0 0 0 0 0 0 0 0 0 0 0 0 0 0 0 0 0 0 0 0 0 0 0 0 0 0 0 0 0 0 0 0 0 0 0
0 0 0 0 0 0 0 0 0 0 0 0 0 0 0 0 0 0 0 0 0 0 0 0 0 0 0 0 0 0 0 0 0 0 0 0 0 0
0 0 0 0 0 0 0 0 0 0 0 0 0 0 0 0 0 0 0 0 0 0 0 0 0 0 0 0 0 0 0 0 0 0 0 0 0 0
0 0 0 0 0 0 0 0 0 0 0 0 0 0 0 0 0 0 0 0 0 0 0 0 0 0 0 0 0 0 0 0 0 0 0 0 0 0
0 0 0 0 0 0 0 0 0 0 0 0 0 0 0 0 0 0 0 0 0 0 0 0 0 0 0 0 0 0 0 0 0 0 0 0 0 0
0 0 0 0 0 0 0 0 0 0 0 0 0 0 0 0 0 0 0 0 0 0 0 0 0 0 0 0 0 0 0 0 0 0 0 0 0 0
0 0 0 0 0 0 0 0 0 0 0 0 0 0 0 0 0 0 0 0 0 0 0 0 0 0 0 0 0 0 0 0 0 0 0 0 0 0
0 0 0 0 0 0 0 0 0 0 0 0 0 0 0 0 0 0 0 0 0 0 0 0 0 0 0 0 0 0 0 0 0 0 0 0 0 0
0 0 0 0 0 0 0 0 0 0 0 0 0 0 0 0 0 0 0 0 0 0 0 0 0 0 0 0 0 0 0 0 0 0 0 0 0 0
0 0 0 0 0 0 0 0 0 0 0 0 0 0 0 0 0 0 0 0 0 0 0 0 0 0 0 0 0 0 0 0 0 0 0 0 0 0
0 0 0 0 0 0 0 0 0 0 0 0 0 0 0 0 0 0 0 0 0 0 0 0 0 0 0 0 0 0 0 0 0 0 0 0 0 0
0 0 0 0 0 0 0 0 0 0 0 0 0 0 0 0 0 0 0 0 0 0 0 0 0 0 0 0 0 0 0 0 0 0 0 0 0 0
0 0 0 0 0 0 0 0 0 0 0 0 0 0 0 0 0 0 0 0 0 0 0 0 0 0 0 0 0 0 0 0 0 0 0 0 0 0
Wind_Speed
5 5 5 4 4 4 4 5 5 5 5 4 3 4 3 2 2 2 3 3 3 4 3 3 2 2 2 2 2 2 2 3 3 4 5 5 6 6
4 5 5 4 4 4 4 5 5 4 4 3 3 3 3 3 3 3 3 2 4 4 3 3 3 3 2 2 1 1 2 2 3 4 5 5 6 7
5 6 6 5 4 4 4 4 5 4 4 3 3 3 4 4 3 3 3 3 3 4 4 4 3 3 3 2 2 2 2 2 3 4 5 6 7 7
7 7 7 5 6 5 4 5 5 5 5 5 3 4 5 5 4 4 3 3 3 3 4 4 4 3 3 3 2 2 2 3 3 4 5 6 7 8
6 7 7 7 7 5 5 5 4 4 4 4 4 3 3 4 4 3 3 3 3 3 4 5 4 4 4 4 3 3 3 3 3 4 5 6 6 7
6 6 7 7 8 7 6 6 5 5 4 4 4 3 3 4 4 4 3 3 3 2 3 4 4 5 5 5 4 3 3 3 3 4 5 6 6 7
5 6 6 6 7 6 5 5 5 4 4 5 5 4 4 4 4 4 4 3 3 3 3 3 3 3 4 4 4 4 3 4 4 4 5 5 6 6
5 5 5 6 6 7 7 7 6 6 6 6 5 6 6 5 4 4 4 3 3 3 3 3 3 4 3 3 3 4 3 3 4 5 5 5 6 6
6 5 5 5 6 6 7 7 7 7 7 7 7 7 7 7 6 6 6 5 3 2 3 4 4 4 3 3 4 4 4 4 5 5 5 6 6 7
6 6 6 6 6 6 6 6 6 7 7 6 6 6 6 5 6 6 5 3 2 2 4 4 4 4 3 3 4 5 5 5 5 5 5 6 7 8
5 6 6 6 7 8 6 6 6 5 5 6 6 5 6 7 6 4 4 4 4 3 3 3 3 3 3 3 3 4 5 5 5 5 6 6 7 8
4 5 7 7 8 9 7 7 7 6 5 5 5 5 6 7 8 7 6 6 4 3 4 3 3 2 3 2 2 3 3 5 6 6 6 7 7 6
4 4 5 8 9 10 8 7 7 6 5 5 5 4 4 5 5 5 5 5 5 4 4 4 3 3 3 2 3 3 3 3 4 4 5 7 7 7
4 4 4 8 9 9 8 7 8 7 4 5 5 5 5 4 4 4 4 4 3 4 4 4 3 4 3 3 3 3 3 3 3 4 4 5 6 7
4 5 5 7 8 8 8 9 8 5 5 5 5 5 4 4 4 3 3 2 2 2 3 5 4 4 4 4 3 3 3 3 3 3 4 4 4 4
4 5 6 6 5 5 6 6 5 5 5 5 4 4 3 4 4 4 4 3 3 2 3 4 4 5 4 4 4 4 4 3 3 4 4 4 4 4
3 3 3 3 4 3 3 4 4 5 5 4 4 4 4 4 4 4 4 4 4 4 3 3 2 2 3 4 4 4 4 4 4 3 4 5 4 4
4 4 4 4 4 4 4 4 4 5 5 4 4 5 5 5 5 4 4 4 5 4 4 3 3 2 2 3 4 5 4 4 4 4 4 5 5 4
4 4 4 4 4 4 4 4 4 4 4 5 5 5 5 5 5 5 5 5 5 4 4 4 4 4 5 5 3 5 5 4 4 4 4 5 6 5
3 4 4 4 4 4 4 4 4 4 4 5 5 5 5 5 5 5 5 5 5 4 4 4 5 5 5 4 3 3 5 5 4 5 4 5 5 7
3 3 3 3 3 4 4 4 4 4 4 4 5 5 5 5 5 5 5 7 6 5 6 5 4 4 2 2 3 4 3 5 6 5 5 5 5 5
3 3 3 3 3 3 3 3 4 4 4 4 5 5 5 5 6 6 5 5 5 5 5 3 3 3 4 5 5 4 4 4 5 7 8 8 5 4
3 3 3 3 3 3 3 3 4 4 4 4 4 5 5 5 5 5 5 5 5 5 4 4 3 3 4 4 4 4 5 5 4 4 4 6 9 12
Wind_Direction
207 209 214 212 210 210 203 198 196 205 210 201 197 198 209 207 191 216 226 212 224 236 241 250 259 268 283 287 290 296 317 337 343 340 338 337 328 328
207 206 211 212 210 214 210 215 220 216 221 199 206 208 214 223 209 222 221 217 219 223 227 240 249 253 255 261 277 304 318 325 329 330 328 330 327 323
207 207 212 212 208 210 217 215 217 213 223 221 207 202 213 218 217 225 224 225 215 213 220 232 241 240 239 236 255 283 299 309 314 317 318 320 317 314
210 208 210 208 209 210 214 218 219 214 218 217 205 204 214 216 216 221 225 230 229 212 218 228 231 237 247 241 238 260 279 294 302 307 310 312 312 313
213 213 211 209 210 209 212 216 217 212 218 207 204 205 210 211 212 221 228 231 240 222 222 222 226 238 246 244 242 253 265 276 288 301 307 310 311 310
215 218 216 214 214 209 210 214 210 204 205 196 197 200 206 206 212 211 222 223 233 233 231 234 228 233 236 241 243 250 258 265 281 294 302 305 307 308
216 219 220 218 218 214 212 210 208 205 206 196 200 202 203 200 211 209 219 221 239 233 234 238 232 230 228 234 236 240 246 259 275 287 299 303 303 304
219 219 218 214 213 215 218 219 216 214 211 204 210 209 214 214 210 207 208 217 240 220 231 242 237 237 236 238 234 235 241 262 279 290 297 301 302 301
221 221 218 214 212 217 215 216 219 230 234 223 215 218 215 213 208 212 217 228 241 221 224 238 236 242 243 240 234 235 250 270 281 286 292 298 302 304
226 225 223 217 213 214 216 219 225 226 231 232 225 224 219 215 215 220 221 225 252 242 233 241 235 245 250 244 223 233 254 271 278 283 291 296 298 299
232 229 225 224 213 209 213 216 226 232 226 229 227 221 214 212 208 201 201 207 231 236 234 241 239 251 255 250 232 233 248 259 270 279 287 290 295 294
234 233 226 223 215 212 214 215 223 229 222 217 215 215 214 208 207 212 209 212 222 227 214 220 222 226 245 245 245 247 248 253 263 271 276 284 291 288
232 232 229 219 218 217 218 223 224 223 221 212 209 207 206 207 209 219 224 221 221 230 200 206 222 230 239 249 256 253 254 259 261 266 270 282 288 287
237 235 230 220 221 219 221 224 223 218 213 205 205 205 203 206 209 216 223 234 245 239 209 212 229 225 225 243 253 248 255 259 264 268 270 274 276 281
236 230 229 222 224 226 222 221 217 216 210 210 210 211 207 204 200 203 207 212 235 233 216 225 229 228 235 239 243 248 260 262 256 262 270 271 275 277
233 226 226 225 225 227 219 215 218 215 214 216 213 208 197 195 202 201 202 196 203 222 224 228 233 231 240 242 241 244 246 246 250 263 271 274 273 268
219 213 214 214 215 219 219 214 211 209 213 210 205 200 198 201 203 203 207 208 216 216 213 215 227 245 257 250 245 242 244 252 253 261 269 270 267 265
223 214 214 216 218 219 219 215 211 211 212 210 206 202 203 202 202 203 205 209 213 214 213 206 200 217 246 265 252 244 242 249 255 258 262 268 270 268
225 217 216 216 219 220 219 218 217 214 211 211 209 206 204 203 202 202 202 206 212 214 216 211 211 217 230 245 242 237 243 251 255 259 262 268 271 274
231 225 221 217 215 217 218 217 215 212 210 211 207 205 204 204 205 206 206 207 209 212 217 218 223 224 230 244 252 258 250 249 251 260 273 279 277 279
234 229 227 223 220 219 218 216 214 214 212 211 209 206 206 206 208 209 210 210 213 216 221 225 228 227 248 248 249 255 258 253 256 259 268 274 278 275
246 235 232 230 226 221 217 213 212 212 211 214 213 209 209 209 210 212 212 212 215 219 226 228 214 214 223 230 241 255 266 273 269 264 265 263 262 261
259 247 240 236 229 221 216 215 216 217 215 214 216 213 210 211 213 215 216 216 216 217 220 220 220 221 228 231 240 251 258 264 266 268 268 272 270 269